DateTimeUTC,F1_A11,F1_S11,BsB_S11,BsG_S11,BsR_S11,BbsB_S11,BbsG_S11,BbsR_S11,BaB_A11,BaG_A11,BaR_A11,Tu_S11,T_S11,Uu_S11,U_S11,P_S11,T1_A11
2021-12-20T00:00:00Z,00000200,21000000,,,,,,,0000.17,0000.24,0000.10,19.6,26.3,,00.0,0668.9,31.1
2021-12-20T00:01:00Z,00000200,21000000,,,,,,,0000.02,-000.06,-000.19,19.6,26.4,,00.0,0668.9,31.1
2021-12-20T00:02:00Z,00000200,21000000,,,,,,,0000.10,0000.10,0000.09,19.6,26.4,,00.0,0668.9,31.1
2021-12-20T00:03:00Z,00000200,61000000,,,,,,,0000.13,0000.26,-000.04,19.7,26.4,,00.0,0668.9,31.2
2021-12-20T00:04:00Z,00000200,41000000,0000.56,0000.02,-000.30,0000.24,-000.02,0000.06,0000.28,0000.02,0000.56,19.9,26.3,,00.0,0669.8,31.1
2021-12-20T00:05:00Z,00000200,01000000,-000.19,-000.11,-000.06,-000.08,-000.07,0000.04,-000.17,-000.09,-000.11,19.9,26.3,,00.0,0669.8,31.1
2021-12-20T00:06:00Z,00000200,01000000,-000.25,-000.13,-000.34,-000.13,0000.09,-000.10,-000.06,0000.04,-000.28,19.9,26.3,,00.0,0669.8,31.1
2021-12-20T00:07:00Z,00000200,01000000,-000.20,0000.07,0000.13,0000.01,0000.13,0000.01,0000.17,0000.13,0000.41,19.8,26.3,,00.0,0669.8,31.1
2021-12-20T00:08:00Z,00000200,01000000,0000.83,0000.18,-000.03,0000.38,0000.29,0000.16,0000.07,-000.02,0000.09,19.7,26.2,,00.0,0669.8,31.1
2021-12-20T00:09:00Z,00000200,01000000,0000.02,0000.09,0000.17,0000.27,-000.00,0000.23,0000.14,0000.01,-000.17,19.7,26.2,,00.0,0669.8,31.1
2021-12-20T00:10:00Z,00000200,01000000,0000.33,0000.53,0000.14,-000.22,0000.16,0000.34,-000.00,0000.03,0000.09,19.6,26.2,,00.0,0669.8,31.1
2021-12-20T00:11:00Z,00000200,01000000,0000.22,0000.17,0000.15,0000.20,-000.25,0000.07,-000.13,0000.02,-000.10,19.6,26.1,,00.0,0669.8,31.1
2021-12-20T00:12:00Z,00000200,01000000,0000.27,0000.08,-000.07,-000.38,-000.09,0000.02,0000.19,0000.30,0000.19,19.6,26.1,,00.0,0669.8,31.1
2021-12-20T00:13:00Z,00000200,01000000,0000.45,0000.01,0000.17,0000.39,-000.17,0000.25,0000.32,0000.07,-000.12,19.7,26.1,,00.0,0669.8,31.1
2021-12-20T00:14:00Z,00000200,01000000,0001.07,0000.01,-000.31,-000.10,-000.29,0000.25,0000.02,0000.22,0000.61,19.7,26.1,,00.0,0669.8,31.1
2021-12-20T00:15:00Z,00000200,01000000,0000.48,0000.09,0000.06,0000.53,-000.09,-000.19,0000.05,-000.03,0000.00,19.8,26.1,,00.0,0669.8,31.1
2021-12-20T00:16:00Z,00000200,01000000,0000.30,0000.24,-000.27,0000.50,0000.08,0000.32,0000.18,0000.28,-000.14,19.9,26.2,,00.0,0669.8,31.1
2021-12-20T00:17:00Z,00000200,01000000,0000.11,0000.42,-000.04,0000.36,-000.24,0000.06,0000.18,0000.04,0000.02,20.0,26.2,,00.0,0669.8,31.1
2021-12-20T00:18:00Z,00000200,01000000,0000.69,0000.07,-000.06,-000.03,-000.06,-000.10,0000.03,-000.04,0000.14,20.0,26.3,,00.0,0669.9,31.1
2021-12-20T00:19:00Z,00000200,01000000,0000.59,0000.01,0000.02,-000.02,0000.04,-000.20,-000.07,-000.11,-000.27,20.0,26.3,,00.0,0669.9,31.1
2021-12-20T00:20:00Z,00000200,01000000,0001.02,-000.08,-000.17,0000.37,0000.21,-000.18,0000.08,0000.20,0000.40,20.0,26.3,,00.0,0669.9,31.1
2021-12-20T00:21:00Z,00000200,01000000,0000.94,0000.08,-000.05,0000.39,-000.16,0000.15,-000.06,-000.18,-000.48,20.0,26.3,,00.0,0669.9,31.2
2021-12-20T00:22:00Z,00000200,01000000,0000.45,0000.21,0000.07,0000.09,-000.10,0000.27,-000.08,0000.28,0000.25,19.9,26.3,,00.0,0669.9,31.1
2021-12-20T00:23:00Z,00000200,01000000,0001.25,0000.10,-000.27,0000.49,-000.14,-000.11,0000.06,-000.14,0000.09,19.9,26.2,,00.0,0669.9,31.1
2021-12-20T00:24:00Z,00000200,01000000,0000.57,0000.18,-000.11,0000.21,-000.01,0000.25,0000.11,-000.05,-000.04,19.8,26.2,,00.0,0669.9,31.1
2021-12-20T00:25:00Z,00000200,01000000,0000.59,0000.43,-000.07,-000.23,0000.15,0000.16,-000.26,-000.32,0000.03,19.8,26.2,,00.0,0669.9,31.1
2021-12-20T00:26:00Z,00000200,01000000,0000.30,0000.03,0000.00,0000.19,0000.06,0000.26,0000.33,0000.17,0000.06,19.7,26.2,,00.0,0669.9,31.1
2021-12-20T00:27:00Z,00000200,01000000,0000.67,-000.10,0000.24,-000.04,0000.02,-000.09,-000.02,0000.10,-000.02,19.8,26.2,,00.0,0669.9,31.1
2021-12-20T00:28:00Z,00000200,01000000,0000.03,0000.17,0000.29,0000.31,-000.10,0000.32,0000.08,0000.27,-000.00,19.8,26.2,,00.0,0669.9,31.1
2021-12-20T00:29:00Z,00000200,01000000,0001.59,0000.18,0000.05,-000.24,0000.14,0000.41,0000.05,0000.24,-000.04,19.9,26.2,,00.0,0669.9,31.1
2021-12-20T00:30:00Z,00000200,01000000,-000.32,0000.06,0000.01,-000.35,0000.08,-000.04,-000.05,-000.20,0000.14,19.9,26.2,,00.0,0669.9,31.1
2021-12-20T00:31:00Z,00000200,01000000,0000.41,-000.27,0000.32,0000.59,0000.13,0000.44,0000.37,0000.38,0000.31,20.0,26.2,,00.0,0669.9,31.1
2021-12-20T00:32:00Z,00000200,01000000,-000.56,0000.41,-000.25,0000.30,0000.25,0000.19,-000.15,-000.09,-000.20,20.1,26.3,,00.0,0669.9,31.2
2021-12-20T00:33:00Z,00000200,01000000,0000.69,0000.17,-000.18,-000.37,-000.04,0000.01,0000.01,0000.20,0000.28,20.1,26.3,,00.0,0670.0,31.2
2021-12-20T00:34:00Z,00000200,01000000,0000.17,0000.11,-000.02,-000.32,-000.16,0000.42,0000.15,-000.20,-000.49,20.2,26.3,,00.0,0670.0,31.2
2021-12-20T00:35:00Z,00000200,01000000,0001.00,-000.05,-000.29,0000.26,0000.17,0000.29,-000.11,0000.13,0000.44,20.1,26.4,,00.0,0670.0,31.2
2021-12-20T00:36:00Z,00000200,01000000,0000.55,0000.22,-000.08,0000.31,-000.03,-000.38,0000.36,0000.26,-000.18,20.1,26.4,,00.0,0670.0,31.1
2021-12-20T00:37:00Z,00000200,01000000,-000.19,0000.04,0000.03,0000.17,0000.11,0000.03,-000.21,-000.28,0000.37,20.1,26.3,,00.0,0670.0,31.2
2021-12-20T00:38:00Z,00000200,01000000,0000.21,-000.03,-000.00,0000.17,-000.18,0000.19,0000.35,0000.10,-000.17,20.0,26.3,,00.0,0670.0,31.1
2021-12-20T00:39:00Z,00000200,01000000,-000.04,-000.02,0000.07,-000.27,0000.16,0000.25,-000.33,-000.00,-000.19,19.9,26.3,,00.0,0670.0,31.1
2021-12-20T00:40:00Z,00000200,01000000,0000.11,-000.04,0000.10,0000.11,-000.07,0000.19,0000.23,-000.05,0000.05,19.9,26.3,,00.0,0670.0,31.1
2021-12-20T00:41:00Z,00000200,01000000,0000.75,0000.33,0000.01,-000.18,0000.00,0000.31,-000.24,0000.21,0000.48,19.9,26.3,,00.0,0670.0,31.1
2021-12-20T00:42:00Z,00000200,01000000,0000.30,0000.32,-000.22,0000.24,-000.03,0000.27,0000.17,0000.00,-000.12,19.9,26.2,,00.0,0670.0,31.1
2021-12-20T00:43:00Z,00000200,01000000,0000.54,-000.02,0000.12,-000.40,-000.17,-000.14,0000.26,0000.03,-000.35,19.9,26.2,,00.0,0670.0,31.1
2021-12-20T00:44:00Z,00000200,01000000,0000.32,0000.34,0000.23,-000.29,0000.14,0000.03,-000.06,-000.07,0000.03,20.0,26.3,,00.0,0670.0,31.1
2021-12-20T00:45:00Z,00000200,01000000,0000.16,-000.12,0000.15,0000.46,-000.02,0000.04,0000.07,0000.20,0000.43,20.1,26.3,,00.0,0670.0,31.1
2021-12-20T00:46:00Z,00000200,01000000,0000.11,0000.04,0000.19,0000.51,-000.03,0000.43,0000.09,0000.03,-000.11,20.1,26.3,,00.0,0670.0,31.1
2021-12-20T00:47:00Z,00000200,01000000,0001.24,0000.22,0000.00,0000.59,-000.29,-000.00,-000.29,0000.16,0000.03,20.2,26.4,,00.0,0670.0,31.1
2021-12-20T00:48:00Z,00000200,01000000,0000.27,-000.23,-000.05,-000.24,-000.18,0000.23,0000.07,-000.63,-000.07,20.3,26.4,,00.0,0670.0,31.2
2021-12-20T00:49:00Z,00000200,01000000,0000.21,-000.19,-000.31,0000.30,-000.05,0000.04,0000.15,0000.39,-000.07,20.3,26.4,,00.0,0670.0,31.2
2021-12-20T00:50:00Z,00000200,01000000,0001.03,-000.08,-000.05,-000.24,-000.08,0000.40,0000.03,0000.05,-000.01,20.2,26.4,,00.0,0670.0,31.1
2021-12-20T00:51:00Z,00000200,01000000,-000.44,0000.06,0000.23,-000.63,-000.08,0000.24,-000.22,-000.52,-000.03,20.1,26.4,,00.0,0670.0,31.1
2021-12-20T00:52:00Z,00000200,01000000,0000.03,-000.26,0000.22,-000.20,0000.13,-000.09,-000.26,0000.28,-000.09,20.1,26.4,,00.0,0669.9,31.2
2021-12-20T00:53:00Z,00000200,01000000,0000.82,-000.17,0000.02,0000.01,-000.27,-000.13,0000.30,0000.08,-000.05,20.1,26.4,,00.0,0669.9,31.1
2021-12-20T00:54:00Z,00000200,01000000,-000.45,0000.07,0000.04,-000.35,0000.13,0000.23,-000.14,-000.15,0000.19,20.0,26.4,,00.0,0669.9,31.1
2021-12-20T00:55:00Z,00000200,01000000,0000.13,0000.13,-000.20,-000.19,-000.07,0000.30,-000.12,0000.05,-000.03,19.9,26.3,,00.0,0669.9,31.1
2021-12-20T00:56:00Z,00000200,01000000,0000.58,0000.07,0000.24,-000.11,-000.03,-000.09,-000.13,-000.51,-000.25,19.9,26.3,,00.0,0669.9,31.1
2021-12-20T00:57:00Z,00000200,41000000,,,,,,,-000.02,0000.25,-000.29,19.9,26.4,,00.0,0669.9,31.1
2021-12-20T00:58:00Z,00000200,61000000,,,,,,,0000.22,-000.09,0000.34,19.7,26.4,,00.0,0668.9,31.1
2021-12-20T00:59:00Z,00000200,21000000,,,,,,,-000.11,-000.09,-000.12,19.7,26.5,,00.0,0668.9,31.1
